CAPE
903 879 1291 1770 1852 1496 1091 1355 1014 1000 1282 1041 1160 1117 1001 799 961 753 651 352 119 145 302 302 700 943 852 936 1066 827 963 1121 1031 1079 1025 986 1715 1299 1363 772 592 508 470 362 345 337 133 102 57 115 9 0 0 0 5 35 14 26 24 26 24 20 17 21 15 10 8 4 9 14 19 40 78 195 265 321 291 451 543 597 668 723 733 712 707
1228 1558 1642 2163 2377 2345 2237 2034 1977 1973 1975 1803 1205 1120 1227 1204 1119 1000 801 812 428 188 249 305 429 747 1053 1020 1171 1189 1076 1100 1108 863 1124 1311 1531 1321 1252 1286 722 570 545 521 385 323 353 183 78 57 26 12 0 1 18 62 20 10 24 20 21 14 15 21 17 12 12 9 5 8 18 24 38 114 245 271 294 308 402 485 544 607 640 627 612
1615 1458 1327 2235 2192 2319 2122 2027 1784 1897 2205 2142 2197 2053 1779 1556 1602 1286 999 878 965 679 436 503 365 449 797 882 1062 1282 1151 1180 1335 1520 1409 1268 1480 1480 981 1209 894 686 570 740 672 306 279 131 79 100 76 42 18 21 50 57 34 12 21 21 10 16 16 11 10 15 20 14 8 2 3 2 28 44 171 203 212 218 329 382 458 501 498 547 572
1900 1770 2184 2238 2151 1956 1849 2016 1834 2286 2197 1923 2101 2113 2202 2092 2111 2162 1664 1590 1551 1463 1272 1088 821 503 505 480 696 924 1246 1441 1280 1186 1359 1304 1050 1718 1688 946 1050 869 573 659 628 329 256 180 109 167 75 119 104 47 52 75 18 13 21 23 10 12 12 18 17 18 23 18 8 2 2 1 1 14 108 162 169 184 182 226 313 385 384 381 408
2338 2654 2396 2216 2122 2238 1940 1830 1874 2173 1913 2010 2985 2663 2452 2251 2133 2159 2118 1949 1508 1035 884 1217 1177 986 698 418 506 1094 957 1233 1469 1333 1546 1659 1352 1023 1726 1807 1118 1025 764 860 768 448 352 317 155 120 118 131 159 49 76 65 30 16 14 16 11 10 14 24 21 17 30 21 8 2 1 0 3 12 8 96 73 76 97 194 222 297 266 162 253
1612 2196 2327 2381 2362 2354 2208 2239 2073 2420 2113 2661 2801 2496 2283 2154 1960 1577 1695 1664 1314 1469 1531 1422 1197 599 884 830 732 1079 961 1753 1697 1426 1397 1495 1541 1276 1458 1276 1918 1067 544 799 642 660 570 445 385 334 98 133 128 12 93 73 32 12 10 15 12 14 19 25 19 29 33 21 12 4 3 1 1 6 14 19 55 52 88 144 169 161 164 77 113
2008 2018 1914 2024 2025 1806 1822 1803 1793 1650 1554 1785 1724 1913 2129 2166 2274 2052 1737 1514 1474 1196 1147 1432 868 1144 1242 1206 934 707 1093 1148 1706 1569 1330 1634 1442 1305 1118 1434 1079 1702 1205 668 542 742 553 507 572 634 575 128 38 9 27 51 22 16 15 18 13 4 21 17 27 33 34 29 18 11 7 4 1 3 11 18 36 36 52 80 78 76 55 66 29
1810 1910 1906 2020 1963 1911 1997 1636 1638 1768 1831 1761 1852 1734 1811 1876 1893 2111 2170 1872 1715 1643 1561 1484 1619 1556 1687 1299 1795 1392 1205 2715 2023 2005 1550 1490 1284 1258 931 1147 1411 1198 1527 1479 952 457 714 670 712 703 524 88 89 14 4 27 14 10 11 9 4 11 11 22 25 30 30 30 19 12 6 7 4 2 8 17 19 30 50 47 46 47 43 27 10
1975 1861 1917 1965 1547 1373 1720 1717 1787 1626 1909 1656 1533 1498 1484 1505 1527 1571 1802 1793 1648 1736 1923 2056 1910 1669 1797 2142 1827 1890 1547 1419 1473 2010 1882 1492 1432 949 1277 1031 1249 1479 1437 981 1101 1053 743 647 677 727 442 188 93 17 4 3 6 10 16 12 7 9 9 20 24 29 30 27 20 13 8 7 7 4 4 19 21 26 38 33 38 41 35 31 18
1866 1847 1971 1874 1650 1646 1650 1863 1798 1806 1681 1774 1758 1675 1588 1430 1562 1750 1819 1985 1896 1961 2005 2023 1937 2013 1857 1711 1880 2006 1734 1924 1759 2084 1232 1426 1792 1150 1075 1483 1150 1274 1105 949 728 1396 1067 627 718 574 616 272 285 1 0 0 2 9 15 13 8 10 10 20 30 26 27 25 24 14 8 6 6 7 3 12 17 21 26 32 25 26 23 24 21
1780 1740 1876 1843 1732 1685 1385 1768 1717 1693 1825 1581 1465 1447 1562 1739 1711 1731 1744 1836 1882 1885 1781 1708 1876 1918 1970 1956 1983 1974 2089 1919 2039 1954 1375 1363 1474 1718 1532 1390 1353 1578 1404 1362 760 806 934 781 291 296 225 264 246 66 0 0 0 6 13 7 6 9 12 20 33 29 30 33 20 13 6 4 5 6 5 8 16 21 19 22 21 21 20 22 22
1684 1840 1812 1713 1729 1743 1752 1669 1528 1565 1571 1430 1312 1258 1478 1542 1714 1727 1801 1838 1610 1719 1716 1708 1571 1512 1536 1657 1953 2117 2206 2090 1958 1956 1448 1373 1591 1478 1239 1092 1278 1377 1310 1294 1157 1460 1116 1079 628 323 327 250 212 88 94 0 0 2 9 10 8 13 14 16 29 29 31 21 19 15 6 4 7 8 5 7 18 16 14 16 21 24 22 24 22
1680 2028 1898 2006 1804 1914 1976 1994 1386 1410 1544 1568 1534 1300 1165 1344 1349 1562 1642 1890 1974 1918 1960 1675 1315 1288 1278 1264 1449 1653 2092 2044 2076 2067 1768 1671 1206 1290 1350 1362 1116 1306 1081 1296 1932 1125 1331 875 682 641 525 286 130 130 64 7 0 1 3 7 9 8 15 10 28 30 16 12 14 10 6 6 10 12 5 10 15 17 15 10 14 18 17 20 16
1806 1647 1850 1849 2045 1958 1895 1988 2044 1707 1774 1751 1590 1292 1352 1512 1374 1500 1780 1485 1329 1512 1761 1572 1440 900 642 721 757 1053 1830 1808 1845 1761 1834 1600 1455 1296 1401 1568 1435 1292 810 1045 1539 1725 1464 1249 719 888 554 547 188 67 5 0 4 3 0 9 8 9 17 3 14 22 14 8 8 8 7 15 15 12 9 17 18 15 11 10 11 16 15 14 16
2130 2129 2099 2128 2098 1938 1610 2285 2524 2278 1972 2110 1802 1684 1665 1613 1606 1316 1367 949 1394 1776 1870 1834 1241 793 624 723 823 675 600 1347 1965 1686 1736 1586 1433 1363 1403 1402 1467 1612 1188 992 1386 1627 1606 1463 876 747 684 357 367 219 43 0 0 4 2 6 7 12 9 8 17 26 16 6 9 9 12 21 22 20 22 22 21 14 15 13 14 12 15 16 15
2016 2056 2130 2008 1910 1872 1691 1813 1970 2478 2453 2015 1764 1484 1932 1812 1944 1643 1232 1562 1126 1230 1667 1882 1902 934 584 497 477 471 413 432 312 1143 1648 1909 1641 1554 1577 1274 1376 1090 1478 1303 1193 1334 1350 1492 1101 777 1069 632 942 536 111 30 2 0 0 8 13 14 17 11 17 29 14 8 11 10 11 25 26 26 23 22 16 17 13 12 12 10 14 13 13
1908 1765 1887 1688 1655 1583 1539 1540 1678 1586 1610 1575 1443 1360 1630 1309 1503 1561 1940 1925 1491 1738 1478 1559 1856 1971 1499 915 600 426 378 333 795 794 1808 1744 1740 1409 1341 1330 1278 1316 1323 933 886 995 1207 1317 903 853 869 973 698 254 211 70 0 0 0 5 8 10 16 12 15 27 17 8 10 14 11 21 24 27 23 21 17 13 11 9 8 7 8 9 9
1712 1706 1318 1384 1491 1467 1505 1452 1556 1355 1428 1406 1544 1434 1369 1325 1379 1602 1976 2053 1883 1550 1425 1926 1931 1617 2076 1579 1096 670 848 910 863 546 1802 1837 1860 1410 1301 1562 1608 1371 1275 1029 641 1079 774 1483 1264 878 780 1156 1050 372 272 73 2 0 0 0 0 6 16 20 13 22 21 13 11 19 12 22 24 23 20 18 14 9 10 9 8 7 7 4 10
1674 1418 1477 1526 1468 1387 1306 1324 1403 1346 1217 1227 1201 1239 1152 1008 1051 1080 1209 1322 1605 1512 1454 1213 1137 1643 1879 2015 1982 1560 1567 1089 931 822 450 835 1078 1070 890 1354 1008 1034 1214 998 1031 941 1289 1190 953 762 780 625 557 853 648 76 0 0 0 0 0 2 9 5 21 32 26 9 13 24 17 24 22 17 16 13 12 10 12 14 16 16 11 12 16
1484 1380 1464 1260 1365 1511 1484 1438 1156 1237 1133 1150 1213 1232 1176 1085 972 1197 1185 1149 1158 1089 1107 1046 856 848 887 1340 1369 1456 1757 1540 1300 941 333 170 589 1430 1076 804 906 1015 1126 999 938 1425 1204 706 752 956 1135 831 768 867 669 65 21 1 0 0 0 0 2 2 5 27 32 5 18 21 26 24 25 17 17 16 13 13 18 21 21 17 19 18 18
1003 1215 1281 1135 1140 1121 1196 1228 1260 1241 957 1011 1115 1135 1209 1158 1148 1084 945 991 1029 1050 932 992 912 667 844 778 790 835 1094 1278 1627 1230 269 250 748 320 620 1304 1049 1064 774 1115 1574 1264 967 708 554 555 1366 667 456 447 586 218 44 20 0 0 0 0 0 0 0 4 22 19 6 18 24 15 20 19 13 17 16 17 19 23 20 18 17 17 13
1332 1244 1173 980 830 941 1017 935 1066 1025 1078 891 885 805 844 928 998 1029 946 926 893 831 904 890 831 806 801 901 953 824 976 1176 1183 1049 525 349 303 448 678 460 770 890 868 1518 1198 1260 956 760 604 1230 720 839 723 574 270 312 212 3 4 0 0 0 0 0 0 0 16 19 9 14 26 24 47 53 14 21 20 21 21 14 13 16 13 15 11
943 1022 1017 916 898 805 771 782 763 733 645 745 831 845 734 699 754 765 788 764 865 1026 992 904 842 829 637 762 691 820 539 646 600 642 915 581 669 420 334 184 374 773 1092 1258 1072 844 566 687 669 667 839 482 659 476 751 875 428 17 0 0 0 0 0 0 0 0 10 11 4 2 17 15 58 35 47 15 21 18 17 22 14 10 16 12 8
835 748 709 631 553 482 489 556 512 532 503 566 551 481 574 648 710 772 842 875 866 889 791 863 828 708 626 499 652 845 768 745 880 898 976 777 226 416 568 133 10 79 370 1582 1313 749 778 582 565 774 1143 938 848 507 536 577 436 24 0 0 0 0 0 0 0 0 2 8 3 4 11 23 30 16 11 44 19 17 25 47 16 18 8 2 3
672 576 551 279 332 340 404 415 434 476 507 457 479 442 532 492 550 660 700 705 770 938 707 706 769 702 577 550 862 996 770 792 900 660 974 1150 792 314 184 595 546 122 232 998 1404 797 721 561 752 1044 939 823 738 798 691 619 87 136 2 0 0 0 0 0 0 0 0 2 0 1 18 11 6 19 20 22 30 26 37 12 6 4 2 2 2
452 487 335 209 243 285 310 361 371 370 304 346 302 332 352 390 444 586 636 714 708 802 836 789 794 668 531 778 1032 1060 1044 1132 901 732 788 860 324 351 604 390 321 203 454 519 772 576 716 1264 1169 1182 932 716 615 533 697 415 417 7 3 0 0 0 0 0 0 0 0 0 0 0 1 5 6 14 10 25 37 12 5 1 10 2 0 0 2
282 263 142 172 194 212 181 142 144 188 223 255 328 339 352 515 521 630 664 756 768 722 536 728 649 545 571 683 908 1020 1152 1097 978 958 614 866 733 530 242 37 285 598 621 360 455 58 882 629 1292 1500 1363 997 687 669 657 531 253 116 0 1 0 0 0 0 0 0 0 0 0 0 0 8 2 8 9 18 2 1 2 3 0 1 2 0 0
262 146 164 100 80 110 52 59 126 234 241 257 258 304 368 529 570 656 724 720 724 777 620 642 538 584 624 864 1043 1063 950 988 1055 818 605 926 1064 429 300 217 252 280 345 475 615 380 184 413 599 953 1050 1038 1187 1080 650 286 304 29 0 17 9 0 0 0 0 0 0 0 0 0 0 6 0 10 12 10 13 21 17 8 13 2 0 0 0
155 97 33 9 7 7 11 44 38 80 59 113 151 234 367 519 607 626 641 655 785 609 618 611 695 883 908 1161 1142 1048 1022 1080 987 544 578 1174 936 467 301 272 717 202 95 347 453 306 545 518 838 714 639 579 807 1149 720 393 132 42 15 28 115 1 0 0 0 0 0 0 0 0 0 0 0 6 11 7 12 17 22 22 12 6 2 0 0
14 4 5 4 4 4 8 6 7 6 10 16 29 50 69 166 332 544 650 696 768 569 640 572 933 980 1120 1148 795 1033 1125 1115 918 724 695 1224 916 349 361 449 688 550 637 532 275 403 898 727 668 659 812 652 748 806 504 422 84 46 31 16 105 0 0 0 0 0 0 0 0 0 0 0 0 1 6 8 4 12 8 7 9 10 4 0 0
4 4 3 2 3 3 3 4 4 6 7 6 7 9 34 106 208 283 437 606 688 591 571 626 791 979 1126 990 1246 1280 947 900 497 619 911 884 1273 593 318 296 271 344 536 194 77 461 512 592 384 572 546 631 732 368 281 280 111 58 28 26 53 31 4 0 0 0 0 0 0 0 0 0 0 0 7 6 6 9 14 5 1 4 0 0 0
3 3 2 3 4 6 3 5 6 5 5 8 7 7 10 46 78 143 211 382 596 595 556 509 561 790 864 694 360 295 479 470 567 463 406 626 426 914 471 389 352 1202 761 207 180 392 464 476 342 915 1021 898 742 387 202 479 236 128 44 101 72 1 1 0 0 0 0 0 0 0 0 0 0 0 6 8 2 19 16 5 0 0 1 0 0
3 1 3 3 2 4 4 5 5 5 4 2 1 4 4 5 10 38 160 276 436 576 587 500 398 619 391 499 434 449 720 709 569 690 688 919 827 532 398 406 297 513 310 151 123 123 181 207 497 802 880 1003 467 388 300 900 365 108 78 156 22 12 16 0 0 0 0 0 0 0 0 0 0 0 7 12 21 28 14 0 0 0 0 0 0
3 3 4 6 4 4 3 0 3 0 1 1 2 3 1 7 7 26 87 171 273 389 407 411 362 294 385 402 324 183 303 503 730 393 414 613 506 425 413 289 206 380 384 282 148 183 169 219 272 680 1076 648 222 608 889 465 274 197 117 130 70 3 34 0 15 0 0 0 0 0 0 1 0 3 13 10 0 0 0 0 0 0 0 0 0
3 4 4 4 1 0 1 4 3 2 3 1 2 1 8 9 9 9 8 10 40 48 36 64 24 22 19 13 2 2 13 110 280 578 720 732 584 460 402 299 575 803 524 216 245 550 157 123 279 392 527 589 170 472 472 410 253 187 175 108 66 44 69 6 17 32 13 0 0 0 0 0 0 2 19 15 0 0 0 0 0 0 0 0 0
2 3 2 0 0 2 2 3 3 3 3 4 3 5 6 7 8 7 6 7 9 8 7 4 4 4 3 2 1 1 2 2 4 60 148 298 745 847 226 477 318 215 30 229 471 388 138 23 232 300 316 383 214 244 254 208 187 152 155 142 191 119 88 110 48 31 49 16 0 0 0 0 0 3 16 25 18 12 0 0 0 0 0 0 0
2 0 0 0 1 2 2 1 2 3 3 2 2 2 5 8 7 4 3 4 9 4 2 4 5 3 2 2 2 2 1 0 1 1 2 5 156 695 442 295 363 355 268 154 310 388 353 380 413 517 639 469 104 150 120 136 101 115 128 152 132 95 160 157 60 203 61 53 5 0 0 0 0 0 4 25 43 38 31 0 0 21 13 0 0
0 1 1 2 2 1 1 2 2 2 2 2 0 0 2 5 2 4 3 2 3 2 1 4 4 6 2 2 2 2 0 1 1 1 1 2 5 17 19 76 164 311 293 281 167 210 573 467 43 96 133 115 58 146 113 128 125 84 60 55 111 101 84 157 162 167 45 55 32 0 0 0 0 0 0 9 24 40 45 49 51 26 21 36 17
0 0 0 1 2 0 0 1 1 2 0 0 0 0 0 4 6 8 5 2 2 2 4 3 2 6 4 2 1 0 0 0 1 1 1 1 2 3 17 56 62 67 126 216 131 104 106 172 360 379 94 149 73 95 114 129 157 226 96 35 40 58 90 61 102 98 42 52 38 31 0 0 0 0 0 29 2 23 47 55 17 37 50 71 64
1 0 0 0 0 0 2 1 2 2 0 0 1 0 0 0 5 7 1 1 1 3 4 1 2 2 5 5 2 0 0 0 0 0 0 1 1 1 12 1 26 29 38 71 70 229 108 18 208 357 128 96 86 80 78 75 91 107 111 51 112 122 122 102 48 60 56 56 54 36 10 7 0 0 3 35 41 11 16 27 43 24 74 40 54
1 0 0 0 0 0 1 2 0 0 0 0 0 0 0 0 8 4 4 2 1 2 2 2 3 0 1 4 4 0 0 0 0 0 0 0 1 1 1 1 9 11 14 5 13 27 104 49 77 373 235 68 76 96 70 81 68 80 83 90 107 101 164 156 114 96 65 109 95 79 58 54 22 2 0 27 44 31 13 14 26 74 78 73 66
0 0 0 0 0 1 0 1 1 0 0 0 0 0 0 0 6 3 3 2 2 2 2 2 1 3 6 5 5 0 0 0 0 0 0 0 0 0 1 1 1 10 12 5 3 4 12 32 26 35 61 52 40 71 56 88 70 69 76 75 75 102 92 98 136 133 137 116 116 93 105 100 72 31 9 7 34 32 8 59 55 54 98 96 74
1 1 0 0 1 1 1 1 1 1 0 0 0 0 0 0 0 8 2 3 3 4 4 5 5 5 5 4 3 1 1 2 0 0 0 0 0 0 0 0 0 0 3 1 2 4 3 5 8 18 25 30 30 32 28 54 58 91 75 66 68 83 80 64 52 23 38 111 153 170 154 108 94 63 28 18 13 31 29 81 86 82 104 106 63
2 1 1 1 2 2 1 1 1 1 0 0 0 0 0 0 0 2 3 3 3 6 3 3 6 5 5 6 4 3 2 0 0 1 0 0 0 0 0 0 0 0 0 0 2 3 3 3 4 11 16 15 21 29 48 51 61 107 99 74 65 71 52 38 38 55 25 75 122 135 111 108 108 42 45 28 13 19 24 41 72 66 102 106 25
1 1 1 3 1 1 1 1 0 0 0 0 0 0 0 0 0 3 0 2 2 1 2 3 5 6 6 7 4 5 1 0 0 0 7 4 0 0 0 0 0 0 0 0 0 0 3 2 2 5 6 5 9 9 7 0 14 36 70 65 58 56 63 52 46 50 48 28 46 52 68 36 24 16 41 16 16 12 21 34 39 43 69 8 6
1 0 1 1 2 2 2 0 0 0 0 0 0 0 0 0 0 3 0 0 0 0 0 0 0 1 4 5 4 3 3 1 0 0 0 4 4 3 2 1 1 0 0 0 0 0 0 1 1 0 0 1 1 2 3 2 3 3 14 49 27 34 47 53 54 57 50 24 20 18 26 30 33 36 10 3 7 10 20 21 22 33 17 4 8
0 0 0 2 2 2 3 1 0 0 0 0 0 0 0 0 0 0 2 0 0 0 0 0 0 0 0 2 1 2 1 0 0 0 0 3 5 5 4 2 0 0 0 0 0 0 0 0 1 1 0 0 0 0 0 4 6 15 6 11 14 14 24 10 11 23 34 32 25 11 33 21 19 32 5 3 1 2 8 19 20 4 19 27 46
1 2 1 2 4 3 3 2 0 0 0 0 0 0 0 0 0 4 3 1 0 0 0 0 0 0 0 0 0 0 0 0 0 0 0 4 5 2 2 5 4 2 0 0 0 0 0 0 0 0 0 0 0 0 0 0 4 8 17 16 12 14 14 17 24 21 30 23 23 12 2 6 1 3 2 2 0 0 3 2 17 42 60 63 52
2 1 3 2 4 2 2 2 0 0 0 0 0 0 0 0 0 13 6 2 0 0 0 0 0 0 0 0 0 0 0 0 0 0 0 0 8 3 1 3 5 3 4 1 0 0 0 0 0 0 0 0 0 0 0 0 4 4 15 11 14 10 12 11 6 8 6 4 5 9 7 18 4 4 3 2 0 5 20 41 56 66 58 44 49
2 1 0 1 2 1 0 0 0 0 0 0 0 0 0 0 0 16 8 6 1 0 0 0 0 0 0 0 0 0 0 0 0 0 0 7 6 5 4 2 1 1 2 1 2 3 0 0 0 0 0 0 0 0 0 0 0 0 1 3 6 5 5 7 9 4 3 2 1 0 0 1 1 0 1 0 0 4 7 5 9 12 14 23 39
3 2 0 0 1 0 0 0 0 0 0 0 0 0 0 0 0 6 1 1 0 0 0 0 0 0 0 0 0 0 0 0 0 0 0 2 5 2 6 4 3 2 0 2 0 0 0 0 0 0 0 0 0 2 1 2 4 5 2 0 0 2 2 2 2 0 1 4 2 5 0 2 0 2 1 0 1 3 4 5 12 16 23 17 8
Wind_Speed
13 14 13 12 11 12 11 12 12 12 14 13 12 14 15 15 17 17 17 19 20 22 23 24 25 25 23 24 24 23 22 20 18 16 16 21 28 28 31 32 26 22 18 17 15 14 15 13 nan 15 nan nan nan nan nan nan nan nan nan nan nan nan nan nan nan nan nan nan nan nan nan nan nan 11 10 10 11 11 10 11 10 10 10 11 13
14 14 15 15 14 13 12 13 12 11 11 12 13 13 14 15 15 15 15 20 20 21 23 23 24 25 25 24 26 23 23 22 20 18 15 16 25 24 30 30 27 24 20 15 14 11 14 13 nan nan nan nan nan nan nan nan nan nan nan nan nan nan nan nan nan nan nan nan nan nan nan nan nan 10 10 9 10 10 10 10 11 11 12 13 13
14 15 16 15 16 15 14 15 14 14 13 12 12 11 12 12 12 12 15 17 19 21 23 23 22 24 25 24 23 25 24 23 21 19 16 17 22 26 26 29 26 25 22 16 11 11 11 13 nan nan nan nan nan nan nan nan nan nan nan nan nan nan nan nan nan nan nan nan nan nan nan nan nan nan 9 9 9 10 11 10 11 11 13 13 14
13 14 14 15 16 16 13 13 13 14 13 11 12 13 13 13 12 11 12 13 15 18 20 21 22 21 22 24 24 23 25 25 22 21 19 17 19 27 27 25 27 25 24 21 15 12 10 12 12 14 nan 13 13 nan nan nan nan nan nan nan nan nan nan nan nan nan nan nan nan nan nan nan nan nan 8 8 9 9 9 9 10 12 12 13 13
12 14 14 15 15 16 21 20 19 16 15 12 12 12 14 15 15 14 15 16 16 16 16 19 20 20 20 17 19 23 24 24 25 22 21 19 18 23 27 24 24 25 22 21 17 14 11 12 10 11 14 14 13 nan nan nan nan nan nan nan nan nan nan nan nan nan nan nan nan nan nan nan nan nan nan nan nan nan nan 8 8 10 12 12 13
14 13 13 14 15 16 15 16 17 19 18 16 15 15 14 14 14 16 17 17 16 17 18 20 19 19 20 21 21 20 24 25 23 23 21 19 18 19 26 24 23 23 21 19 16 16 14 11 11 10 nan 15 14 nan nan nan nan nan nan nan nan nan nan nan nan nan nan nan nan nan nan nan nan nan nan nan nan nan nan 8 8 10 11 nan 12
12 11 12 13 14 15 16 16 17 16 16 17 15 14 14 13 14 15 15 16 18 19 19 20 21 20 20 19 17 20 23 21 23 23 22 21 19 20 22 29 24 23 21 20 17 17 16 13 12 9 7 14 nan nan nan nan nan nan nan nan nan nan nan nan nan nan nan nan nan nan nan nan nan nan nan nan nan nan nan nan nan nan nan nan nan
11 12 12 12 13 13 15 16 16 15 16 16 15 15 15 15 15 15 14 15 16 17 20 21 21 22 21 21 20 18 20 26 21 21 19 20 19 20 23 23 27 25 24 21 19 18 17 14 14 13 9 nan nan nan nan nan nan nan nan nan nan nan nan nan nan nan nan nan nan nan nan nan nan nan nan nan nan nan nan nan nan nan nan nan nan
12 12 12 11 13 14 15 16 16 17 17 16 16 16 16 16 16 16 16 16 16 16 17 17 18 20 22 23 23 22 21 24 27 26 25 25 21 19 23 23 24 27 27 23 21 18 19 17 15 16 14 12 nan nan nan nan nan nan nan nan nan nan nan nan nan nan nan nan nan nan nan nan nan nan nan nan nan nan nan nan nan nan nan nan nan
12 12 12 10 12 13 14 16 16 17 18 17 17 17 18 19 18 18 18 19 19 19 19 19 19 20 21 22 24 26 23 22 22 25 22 23 25 22 20 22 23 24 26 28 24 22 23 21 18 17 18 17 14 nan nan nan nan nan nan nan nan nan nan nan nan nan nan nan nan nan nan nan nan nan nan nan nan nan nan nan nan nan nan nan nan
13 14 12 11 11 12 14 16 16 17 17 17 18 18 18 19 18 17 18 18 19 20 20 20 21 20 21 22 23 25 26 25 25 26 23 22 22 22 21 21 23 23 24 24 27 25 23 24 21 20 20 20 17 nan nan nan nan nan nan nan nan nan nan nan nan nan nan nan nan nan nan nan nan nan nan nan nan nan nan nan nan nan nan nan nan
14 14 12 12 10 12 14 15 16 17 18 18 18 18 18 16 16 15 15 17 19 20 22 23 23 22 22 22 24 25 26 26 26 25 25 23 24 23 24 21 23 24 23 24 22 28 29 24 24 20 19 23 20 nan nan nan nan nan nan nan nan nan nan nan nan nan nan nan nan nan nan nan nan nan nan nan nan nan nan nan nan nan nan nan nan
14 14 13 12 11 12 14 15 17 19 19 18 18 16 15 15 16 15 15 16 18 21 22 23 23 23 24 24 24 26 27 28 28 28 26 24 23 23 22 22 23 24 23 25 26 28 30 27 24 21 22 22 23 21 nan nan nan nan nan nan nan nan nan nan nan nan nan nan nan nan nan nan nan nan nan nan nan nan nan nan nan nan nan nan nan
13 14 13 11 11 12 13 15 17 18 19 19 19 18 16 17 16 16 17 16 17 20 22 24 24 25 23 24 25 27 28 29 29 29 28 27 26 24 22 22 22 22 23 25 26 26 29 27 25 23 20 22 23 nan nan nan nan nan nan nan nan nan nan nan nan nan nan nan nan nan nan nan nan nan nan nan nan nan nan nan nan nan nan nan nan
15 14 13 12 11 11 13 14 16 17 18 19 18 18 17 15 15 15 15 17 19 20 22 25 22 22 23 23 25 24 28 32 31 29 30 30 29 26 24 23 21 22 22 23 25 26 27 27 26 23 19 16 20 22 nan nan nan nan nan nan nan nan nan nan nan nan nan nan nan nan nan nan nan nan nan nan nan nan nan nan nan nan nan nan nan
14 14 13 13 12 12 12 13 14 16 17 17 17 17 17 16 15 14 16 15 18 19 20 23 24 23 23 24 24 25 24 28 29 31 31 32 31 28 30 27 26 22 22 23 24 25 26 27 26 22 22 20 20 22 22 nan nan nan nan nan nan nan nan nan nan nan nan nan nan nan nan nan nan nan nan nan nan nan nan nan nan nan nan nan nan
13 13 12 12 12 12 13 13 13 14 14 15 15 15 14 14 14 14 14 15 15 19 20 21 23 26 25 24 25 27 27 26 28 28 36 31 32 30 31 29 27 26 25 23 23 24 26 27 27 24 24 26 20 19 20 nan nan nan nan nan nan nan nan nan nan nan nan nan nan nan nan nan nan nan nan nan nan nan nan nan nan nan nan nan nan
13 13 12 12 12 12 12 12 12 12 13 13 13 14 13 13 13 13 14 16 16 16 19 22 24 24 27 26 26 25 24 24 24 26 35 33 33 32 28 30 30 29 27 23 21 23 26 28 29 29 26 25 22 19 20 nan nan nan nan nan nan nan nan nan nan nan nan nan nan nan nan nan nan nan nan nan nan nan nan nan nan nan nan nan nan
13 13 13 13 13 13 13 13 13 12 13 13 14 14 14 13 13 13 13 14 16 17 18 19 22 25 27 25 24 26 27 26 27 27 24 32 34 32 28 27 27 27 27 26 22 22 25 29 30 29 28 25 22 21 23 nan nan nan nan nan nan nan nan nan nan nan nan nan nan nan nan nan nan nan nan nan nan nan nan nan nan nan nan nan nan
14 13 13 14 14 14 14 14 13 13 14 14 15 15 15 15 14 13 12 13 14 16 16 19 20 21 27 30 29 28 28 27 27 29 26 22 27 36 37 32 31 30 26 25 25 25 25 25 26 28 29 27 24 22 23 nan nan nan nan nan nan nan nan nan nan nan nan nan nan nan nan nan nan nan nan nan nan nan nan nan nan nan nan nan nan
15 15 14 14 15 14 14 13 13 12 13 13 14 13 13 13 13 13 13 14 15 15 16 18 20 22 22 24 26 28 29 29 29 33 31 26 26 27 30 35 32 31 28 24 27 27 25 24 24 25 32 29 24 22 24 24 nan nan nan nan nan nan nan nan nan nan nan nan nan nan nan nan nan nan nan nan nan nan nan nan nan nan nan nan nan
16 16 17 16 16 16 15 14 13 13 13 12 11 11 12 12 12 12 13 13 15 17 18 19 21 22 24 24 25 27 28 29 31 32 31 28 26 24 27 28 29 30 26 28 26 24 26 24 22 31 31 28 27 25 26 24 24 nan nan nan nan nan nan nan nan nan nan nan nan nan nan nan nan nan nan nan nan nan nan nan nan nan nan nan nan
16 17 18 17 17 16 16 14 14 14 13 12 11 12 12 13 12 11 12 12 14 15 16 19 21 22 23 25 26 26 26 24 25 27 27 27 27 23 22 23 25 27 29 29 31 28 26 24 23 25 31 26 28 28 26 27 24 nan nan nan nan nan nan nan nan nan nan nan nan nan nan nan nan nan nan nan nan nan nan nan nan nan nan nan nan
17 17 18 18 17 17 16 15 15 15 14 14 12 12 12 12 12 12 13 13 13 15 17 18 19 22 23 25 26 26 27 27 26 28 27 28 31 25 21 24 nan nan 28 33 32 28 25 23 24 25 28 26 28 28 27 29 26 nan nan nan nan nan nan nan nan nan nan nan nan nan nan nan nan nan nan nan nan nan nan nan nan nan nan nan nan
18 17 18 17 17 17 17 16 16 16 15 14 13 12 12 13 13 12 12 12 14 15 17 18 19 21 22 24 26 26 26 27 29 27 27 30 31 24 22 24 21 19 21 28 29 26 23 22 25 27 27 26 25 27 29 30 nan 30 nan nan nan nan nan nan nan nan nan nan nan nan nan nan nan nan nan nan nan nan nan nan nan nan nan nan nan
18 18 18 17 17 18 17 16 15 15 14 14 13 12 12 12 12 13 12 13 13 14 15 17 19 20 23 24 26 27 27 29 30 28 25 28 27 26 21 21 21 17 20 23 28 27 19 22 25 24 24 24 25 26 29 29 29 nan nan nan nan nan nan nan nan nan nan nan nan nan nan nan nan nan nan nan nan nan nan nan nan nan nan nan nan
17 18 17 17 17 17 17 15 15 15 14 14 14 13 13 14 13 13 14 15 14 15 16 17 18 19 21 24 25 27 28 28 30 30 26 26 27 27 22 nan 19 19 16 19 19 nan 22 20 19 22 21 21 24 27 31 31 31 32 nan nan nan nan nan nan nan nan nan nan nan nan nan nan nan nan nan nan nan nan nan nan nan nan nan nan nan
15 17 17 17 nan 16 nan nan 15 15 15 15 14 15 14 13 13 13 13 15 15 14 15 16 18 18 20 23 26 27 28 28 29 27 23 25 25 22 19 18 16 15 14 14 15 15 16 20 20 21 21 21 23 28 33 33 35 nan nan nan nan nan nan nan nan nan nan nan nan nan nan nan nan nan nan nan nan nan nan nan nan nan nan nan nan
15 nan nan nan nan nan nan nan nan nan nan 16 16 15 15 14 14 13 13 14 14 14 16 17 18 19 22 23 26 27 27 28 28 24 21 29 27 24 21 17 17 14 nan 11 13 13 17 16 18 20 19 20 21 26 30 30 30 nan nan nan 32 nan nan nan nan nan nan nan nan nan nan nan nan nan nan nan nan nan nan nan nan nan nan nan nan
nan nan nan nan nan nan nan nan nan nan nan nan nan nan nan 15 14 13 14 14 14 16 17 17 18 20 22 24 26 27 27 27 26 22 22 26 26 25 21 16 16 13 9 7 9 14 16 19 19 19 23 20 21 23 23 23 nan nan nan nan 29 nan nan nan nan nan nan nan nan nan nan nan nan nan nan nan nan nan nan nan nan nan nan nan nan
nan nan nan nan nan nan nan nan nan nan nan nan nan nan nan 17 16 15 14 15 15 16 18 18 19 20 21 22 25 27 28 27 22 19 21 24 26 26 23 19 15 14 13 11 nan 17 20 19 21 19 23 20 21 22 20 17 24 nan nan nan nan nan nan nan nan nan nan nan nan nan nan nan nan nan nan nan nan nan nan nan nan nan nan nan nan
nan nan nan nan nan nan nan nan nan nan nan nan nan nan nan nan nan 17 16 15 15 16 16 18 20 19 19 20 23 25 27 25 23 22 23 26 25 25 24 20 15 17 16 12 11 12 20 19 19 21 22 22 23 22 20 18 27 24 nan 27 nan nan nan nan nan nan nan nan nan nan nan nan nan nan nan nan nan nan nan nan nan nan nan nan nan
nan nan nan nan nan nan nan nan nan nan nan nan nan nan nan nan nan nan 17 17 16 17 18 18 20 20 20 21 24 30 29 28 26 25 25 24 25 27 26 21 16 16 16 16 14 13 16 19 20 21 23 24 23 23 22 26 31 29 nan 25 nan nan nan nan nan nan nan nan nan nan nan nan nan nan nan nan nan nan nan nan nan nan nan nan nan
nan nan nan nan nan nan nan nan nan nan nan nan nan nan nan nan nan nan nan 18 18 20 21 21 22 22 22 22 25 26 26 25 24 23 22 22 23 24 25 25 20 18 20 19 16 15 14 18 19 22 23 25 23 24 26 27 28 29 27 26 nan nan nan nan nan nan nan nan nan nan nan nan nan nan nan nan nan nan nan nan nan nan nan nan nan
nan nan nan nan nan nan nan nan nan nan nan nan nan nan nan nan nan nan nan nan nan nan nan nan nan nan nan nan nan nan nan 24 22 22 21 21 23 23 23 22 19 18 19 19 16 17 17 17 19 19 20 22 22 23 24 25 27 27 27 25 nan nan nan nan nan nan nan nan nan nan nan nan nan nan nan nan nan nan nan nan nan nan nan nan nan
nan nan nan nan nan nan nan nan nan nan nan nan nan nan nan nan nan nan nan nan nan nan nan nan nan nan nan nan nan nan nan nan nan nan 20 19 21 23 21 22 21 17 nan 18 18 17 15 nan 17 16 18 19 20 21 23 25 25 25 25 27 27 28 nan 34 nan nan nan nan nan nan nan nan nan nan nan nan nan nan nan nan nan nan nan nan nan
nan nan nan nan nan nan nan nan nan nan nan nan nan nan nan nan nan nan nan nan nan nan nan nan nan nan nan nan nan nan nan nan nan nan nan nan 18 21 21 21 21 19 17 15 17 18 16 16 17 18 18 17 16 21 25 24 22 22 24 27 29 nan 30 35 nan 39 nan nan nan nan nan nan nan nan nan nan nan nan nan nan nan nan nan nan nan
nan nan nan nan nan nan nan nan nan nan nan nan nan nan nan nan nan nan nan nan nan nan nan nan nan nan nan nan nan nan nan nan nan nan nan nan nan nan nan nan 18 19 17 15 15 16 18 16 nan nan 15 16 nan 21 26 27 24 nan nan nan 33 33 nan 34 35 38 nan nan nan nan nan nan nan nan nan nan nan nan nan nan nan nan nan nan nan
nan nan nan nan nan nan nan nan nan nan nan nan nan nan nan nan nan nan nan nan nan nan nan nan nan nan nan nan nan nan nan nan nan nan nan nan nan nan nan nan nan nan 18 18 17 16 13 14 15 13 nan 14 nan nan 24 29 29 26 nan nan nan nan nan nan 34 nan nan nan nan nan nan nan nan nan nan nan nan nan nan nan nan nan nan nan nan
nan nan nan nan nan nan nan nan nan nan nan nan nan nan nan nan nan nan nan nan nan nan nan nan nan nan nan nan nan nan nan nan nan nan nan nan nan nan nan nan nan nan nan nan nan 19 17 nan 13 12 11 nan nan nan nan nan nan 28 27 nan 28 29 28 29 nan nan nan nan nan nan nan nan nan nan nan nan nan nan nan nan nan nan nan nan nan
nan nan nan nan nan nan nan nan nan nan nan nan nan nan nan nan nan nan nan nan nan nan nan nan nan nan nan nan nan nan nan nan nan nan nan nan nan nan nan nan nan nan nan nan nan nan 20 nan nan 15 14 nan nan nan nan nan nan nan nan nan 26 29 28 25 28 nan nan 36 nan nan nan nan nan nan nan nan nan nan nan nan nan nan nan nan nan
nan nan nan nan nan nan nan nan nan nan nan nan nan nan nan nan nan nan nan nan nan nan nan nan nan nan nan nan nan nan nan nan nan nan nan nan nan nan nan nan nan nan nan nan nan nan nan nan nan nan nan nan nan nan nan nan nan nan nan nan nan 30 nan nan 32 32 34 37 38 nan 36 35 nan nan nan nan nan nan nan nan nan nan nan nan nan
nan nan nan nan nan nan nan nan nan nan nan nan nan nan nan nan nan nan nan nan nan nan nan nan nan nan nan nan nan nan nan nan nan nan nan nan nan nan nan nan nan nan nan nan nan nan nan nan nan nan nan nan nan nan nan nan nan nan nan nan nan nan nan nan nan nan nan 38 37 37 39 36 nan nan nan nan nan nan nan nan nan nan 46 48 nan
nan nan nan nan nan nan nan nan nan nan nan nan nan nan nan nan nan nan nan nan nan nan nan nan nan nan nan nan nan nan nan nan nan nan nan nan nan nan nan nan nan nan nan nan nan nan nan nan nan nan nan nan nan nan nan nan nan 17 nan nan nan nan nan nan nan nan nan nan 43 44 43 44 44 nan nan nan nan nan nan nan nan nan 51 52 nan
nan nan nan nan nan nan nan nan nan nan nan nan nan nan nan nan nan nan nan nan nan nan nan nan nan nan nan nan nan nan nan nan nan nan nan nan nan nan nan nan nan nan nan nan nan nan nan nan nan nan nan nan nan nan nan nan nan nan nan nan nan nan nan nan nan nan nan nan nan nan nan nan nan nan nan nan nan nan nan nan nan nan nan nan nan
nan nan nan nan nan nan nan nan nan nan nan nan nan nan nan nan nan nan nan nan nan nan nan nan nan nan nan nan nan nan nan nan nan nan nan nan nan nan nan nan nan nan nan nan nan nan nan nan nan nan nan nan nan nan nan nan nan nan nan nan nan nan nan nan nan nan nan nan nan nan nan nan nan nan nan nan nan nan nan nan nan nan nan nan nan
nan nan nan nan nan nan nan nan nan nan nan nan nan nan nan nan nan nan nan nan nan nan nan nan nan nan nan nan nan nan nan nan nan nan nan nan nan nan nan nan nan nan nan nan nan nan nan nan nan nan nan nan nan nan nan nan nan nan nan nan nan nan nan nan nan nan nan nan nan nan nan nan nan nan nan nan nan nan nan nan nan nan nan nan nan
nan nan nan nan nan nan nan nan nan nan nan nan nan nan nan nan nan nan nan nan nan nan nan nan nan nan nan nan nan nan nan nan nan nan nan nan nan nan nan nan nan nan nan nan nan nan nan nan nan nan nan nan nan nan nan nan nan nan nan nan nan nan nan nan nan nan nan nan nan nan nan nan nan nan nan nan nan nan nan nan nan nan nan nan nan
nan nan nan nan nan nan nan nan nan nan nan nan nan nan nan nan nan nan nan nan nan nan nan nan nan nan nan nan nan nan nan nan nan nan nan nan nan nan nan nan nan nan nan nan nan nan nan nan nan nan nan nan nan nan nan nan nan nan nan nan nan nan nan nan nan nan nan nan nan nan nan nan nan nan nan nan nan nan nan nan nan nan nan nan nan
nan nan nan nan nan nan nan nan nan nan nan nan nan nan nan nan nan nan nan nan nan nan nan nan nan nan nan nan nan nan nan nan nan nan nan nan nan nan nan nan nan nan nan nan nan nan nan nan nan nan nan nan nan nan nan nan nan nan nan nan nan nan nan nan nan nan nan nan nan nan nan nan nan nan nan nan nan nan nan nan nan nan nan nan nan
nan nan nan nan nan nan nan nan nan nan nan nan nan nan nan nan nan nan nan nan nan nan nan nan nan nan nan nan nan nan nan nan nan nan nan nan nan nan nan nan nan nan nan nan nan nan nan nan nan nan nan nan nan nan nan nan nan nan nan nan nan nan nan nan nan nan nan nan nan nan nan nan nan nan nan nan nan nan nan nan nan nan nan nan nan
Wind_Direction
327 331 337 330 327 329 333 331 339 337 331 341 339 340 344 347 346 348 350 353 353 352 351 350 346 344 344 339 339 338 332 329 329 324 319 314 309 312 320 324 322 320 320 317 323 327 310 318 nan 318 nan nan nan nan nan nan nan nan nan nan nan nan nan nan nan nan nan nan nan nan nan nan nan 277 271 270 262 259 260 261 270 279 281 287 293
324 331 331 329 331 327 325 322 320 324 330 331 335 337 342 346 348 347 350 347 349 348 346 349 349 345 343 343 338 339 334 335 334 328 324 315 302 308 313 318 324 321 320 321 324 314 314 315 nan nan nan nan nan nan nan nan nan nan nan nan nan nan nan nan nan nan nan nan nan nan nan nan nan 280 274 270 272 266 264 263 267 276 282 285 289
317 328 324 331 330 324 330 321 327 324 326 330 331 331 332 340 343 345 344 347 344 345 345 346 348 349 346 344 340 336 338 334 333 331 325 314 304 306 310 316 322 321 322 317 315 322 323 317 nan nan nan nan nan nan nan nan nan nan nan nan nan nan nan nan nan nan nan nan nan nan nan nan nan nan 277 273 270 272 266 265 269 279 287 290 291
311 317 326 326 325 318 311 305 316 315 318 327 327 328 333 338 335 335 338 337 341 341 341 343 344 348 349 346 342 339 332 331 336 336 330 317 308 307 308 314 324 324 325 323 318 318 314 313 334 343 nan 329 337 nan nan nan nan nan nan nan nan nan nan nan nan nan nan nan nan nan nan nan nan nan 280 276 274 270 271 272 275 279 289 293 293
310 316 322 326 323 326 322 334 325 324 315 328 327 326 331 335 332 334 335 337 342 345 345 343 346 343 346 347 329 327 328 334 335 336 333 326 316 308 307 311 317 321 323 321 316 318 317 319 325 336 335 339 338 nan nan nan nan nan nan nan nan nan nan nan nan nan nan nan nan nan nan nan nan nan nan nan nan nan nan 278 279 281 288 293 292
307 315 318 318 321 329 328 323 322 320 323 325 325 328 330 331 334 335 339 337 339 343 341 346 343 346 345 341 336 330 325 328 336 332 334 331 322 314 306 304 307 312 320 324 315 315 313 315 324 336 nan 339 338 nan nan nan nan nan nan nan nan nan nan nan nan nan nan nan nan nan nan nan nan nan nan nan nan nan nan 281 279 285 284 nan 293
298 303 310 314 320 326 328 325 321 320 318 318 317 316 319 323 327 334 336 338 341 338 344 341 347 346 343 330 329 334 329 334 325 326 334 333 327 320 315 309 310 312 313 309 312 313 313 316 324 314 329 336 nan nan nan nan nan nan nan nan nan nan nan nan nan nan nan nan nan nan nan nan nan nan nan nan nan nan nan nan nan nan nan nan nan
293 295 301 309 314 319 322 321 317 316 312 308 311 314 313 318 323 327 330 336 339 341 340 344 343 342 338 340 333 331 334 317 321 315 327 324 330 331 327 322 316 315 313 305 298 300 310 311 308 310 315 nan nan nan nan nan nan nan nan nan nan nan nan nan nan nan nan nan nan nan nan nan nan nan nan nan nan nan nan nan nan nan nan nan nan
289 293 299 309 316 319 323 323 326 324 320 317 316 317 316 316 318 324 326 328 335 339 337 335 337 340 340 339 341 335 338 331 326 328 323 324 329 333 330 325 320 314 306 308 300 286 306 311 305 300 301 302 nan nan nan nan nan nan nan nan nan nan nan nan nan nan nan nan nan nan nan nan nan nan nan nan nan nan nan nan nan nan nan nan nan
290 290 292 305 312 321 324 328 329 328 328 325 322 319 318 318 321 323 326 328 330 332 334 334 334 335 337 339 338 335 339 331 328 312 316 323 325 324 328 322 319 317 312 309 307 301 291 302 304 296 295 296 300 nan nan nan nan nan nan nan nan nan nan nan nan nan nan nan nan nan nan nan nan nan nan nan nan nan nan nan nan nan nan nan nan
285 287 297 305 311 320 325 328 332 330 328 329 326 324 322 320 323 322 324 328 328 330 331 330 331 333 336 338 336 336 336 337 332 325 325 323 317 316 319 320 316 315 311 309 305 306 296 285 285 282 282 295 296 nan nan nan nan nan nan nan nan nan nan nan nan nan nan nan nan nan nan nan nan nan nan nan nan nan nan nan nan nan nan nan nan
285 288 290 298 308 316 326 331 332 334 334 334 329 325 322 322 323 325 325 326 329 330 331 331 331 333 336 336 335 334 338 337 336 333 331 327 315 312 310 317 316 314 315 305 303 294 292 287 277 284 282 290 297 nan nan nan nan nan nan nan nan nan nan nan nan nan nan nan nan nan nan nan nan nan nan nan nan nan nan nan nan nan nan nan nan
283 285 291 298 309 319 326 334 335 338 338 337 334 330 322 317 314 316 323 326 326 328 330 329 329 330 332 335 333 334 336 337 338 334 333 328 320 310 311 303 309 312 308 303 299 291 290 292 289 285 280 276 288 300 nan nan nan nan nan nan nan nan nan nan nan nan nan nan nan nan nan nan nan nan nan nan nan nan nan nan nan nan nan nan nan
278 284 288 298 307 316 324 330 334 336 337 337 337 333 330 325 322 319 322 325 324 326 328 325 330 331 327 326 328 329 333 333 334 334 332 327 324 319 308 304 304 306 302 301 299 295 290 288 289 278 264 265 279 nan nan nan nan nan nan nan nan nan nan nan nan nan nan nan nan nan nan nan nan nan nan nan nan nan nan nan nan nan nan nan nan
276 277 287 294 302 308 316 322 329 333 335 339 337 337 331 328 325 322 315 322 324 324 328 327 329 324 324 324 326 323 323 326 325 330 331 327 323 320 315 308 306 302 299 298 294 293 290 287 286 282 267 253 276 280 nan nan nan nan nan nan nan nan nan nan nan nan nan nan nan nan nan nan nan nan nan nan nan nan nan nan nan nan nan nan nan
277 284 292 298 302 308 309 314 320 325 332 335 337 336 330 326 321 322 321 320 320 324 324 326 327 322 324 324 320 320 324 324 323 327 329 323 321 321 317 314 304 304 297 295 293 290 289 286 284 281 270 263 252 267 273 nan nan nan nan nan nan nan nan nan nan nan nan nan nan nan nan nan nan nan nan nan nan nan nan nan nan nan nan nan nan
276 286 290 295 301 303 304 307 313 319 326 330 331 329 326 326 321 319 319 314 317 320 324 327 331 327 327 323 325 326 325 317 306 313 314 318 319 321 316 313 308 301 295 294 292 289 288 285 280 272 266 264 259 260 265 nan nan nan nan nan nan nan nan nan nan nan nan nan nan nan nan nan nan nan nan nan nan nan nan nan nan nan nan nan nan
274 283 286 287 291 297 300 304 308 311 313 315 317 320 322 320 316 314 320 324 318 320 324 326 329 333 331 331 327 325 320 312 310 314 311 318 316 317 313 310 303 299 296 288 288 285 283 282 278 272 267 264 260 258 263 nan nan nan nan nan nan nan nan nan nan nan nan nan nan nan nan nan nan nan nan nan nan nan nan nan nan nan nan nan nan
267 272 281 283 285 286 289 294 296 301 307 313 315 316 318 317 312 316 312 311 317 323 325 324 324 328 328 328 329 328 323 321 318 307 312 314 315 309 306 299 297 300 296 290 288 281 276 277 279 275 269 265 260 255 256 nan nan nan nan nan nan nan nan nan nan nan nan nan nan nan nan nan nan nan nan nan nan nan nan nan nan nan nan nan nan
273 273 271 280 282 282 286 291 297 307 312 317 320 321 319 318 316 314 313 314 318 322 323 322 323 324 324 328 332 332 331 328 328 320 321 318 316 310 307 307 302 294 294 291 287 281 271 266 274 277 270 267 261 260 268 nan nan nan nan nan nan nan nan nan nan nan nan nan nan nan nan nan nan nan nan nan nan nan nan nan nan nan nan nan nan
270 275 276 274 278 282 282 288 293 296 301 309 315 318 319 319 316 315 317 317 316 319 324 325 323 325 322 326 328 330 329 330 326 322 325 327 321 312 307 301 298 295 289 283 279 277 275 276 273 273 274 267 263 261 262 265 nan nan nan nan nan nan nan nan nan nan nan nan nan nan nan nan nan nan nan nan nan nan nan nan nan nan nan nan nan
275 272 274 276 276 277 279 281 284 290 293 299 303 308 311 313 315 317 314 317 320 326 328 327 326 325 326 324 326 329 332 329 327 323 325 330 325 313 301 296 293 291 291 282 279 271 265 265 266 271 266 262 260 253 261 266 264 nan nan nan nan nan nan nan nan nan nan nan nan nan nan nan nan nan nan nan nan nan nan nan nan nan nan nan nan
268 273 277 276 273 276 275 280 282 286 293 297 305 306 307 309 310 311 313 318 320 321 326 329 328 328 328 327 330 333 330 330 322 319 320 321 321 320 306 301 301 289 290 284 275 274 273 269 265 266 270 269 265 261 255 255 255 nan nan nan nan nan nan nan nan nan nan nan nan nan nan nan nan nan nan nan nan nan nan nan nan nan nan nan nan
279 280 278 275 277 279 281 285 288 290 291 293 295 298 299 299 302 305 306 309 315 321 325 326 329 326 329 328 329 331 331 330 325 322 321 320 323 329 313 297 nan nan 284 284 280 278 271 268 271 268 267 268 267 268 264 258 250 nan nan nan nan nan nan nan nan nan nan nan nan nan nan nan nan nan nan nan nan nan nan nan nan nan nan nan nan
274 275 276 279 283 284 283 283 283 285 286 289 292 293 299 302 305 307 306 309 311 320 323 325 327 326 326 327 329 331 332 324 317 319 322 321 318 318 316 301 300 289 278 274 271 268 264 266 267 265 265 267 264 263 265 262 nan 248 nan nan nan nan nan nan nan nan nan nan nan nan nan nan nan nan nan nan nan nan nan nan nan nan nan nan nan
278 279 280 280 282 283 285 285 286 287 287 289 290 292 293 299 307 311 311 311 315 319 323 327 327 330 328 328 328 331 331 327 324 320 324 325 324 324 317 309 311 305 289 280 276 271 261 260 264 264 265 268 266 264 264 266 260 nan nan nan nan nan nan nan nan nan nan nan nan nan nan nan nan nan nan nan nan nan nan nan nan nan nan nan nan
276 280 281 283 284 286 288 291 289 287 286 287 288 289 293 299 308 311 311 315 317 319 320 321 324 328 329 327 328 333 331 330 329 325 326 325 324 319 319 nan 311 306 301 287 277 nan 280 273 268 270 268 265 267 262 264 266 263 256 nan nan nan nan nan nan nan nan nan nan nan nan nan nan nan nan nan nan nan nan nan nan nan nan nan nan nan
280 281 281 284 nan 283 nan nan 284 283 284 285 286 289 287 293 303 308 311 309 313 317 318 320 323 323 323 325 327 331 332 330 327 324 326 325 320 313 315 318 312 305 296 288 278 270 278 274 279 283 277 272 263 259 265 272 259 nan nan nan nan nan nan nan nan nan nan nan nan nan nan nan nan nan nan nan nan nan nan nan nan nan nan nan nan
281 nan nan nan nan nan nan nan nan nan nan 287 285 282 280 286 294 299 304 305 307 310 312 315 312 315 320 324 325 326 329 328 324 322 331 327 325 317 319 322 312 308 nan 278 279 274 273 267 272 278 282 279 270 260 268 268 259 nan nan nan 247 nan nan nan nan nan nan nan nan nan nan nan nan nan nan nan nan nan nan nan nan nan nan nan nan
nan nan nan nan nan nan nan nan nan nan nan nan nan nan nan 289 291 298 303 301 303 305 306 305 307 312 318 320 320 321 319 324 326 326 331 329 326 318 314 313 310 315 312 297 279 273 267 256 252 262 274 275 267 267 271 271 nan nan nan nan 246 nan nan nan nan nan nan nan nan nan nan nan nan nan nan nan nan nan nan nan nan nan nan nan nan
nan nan nan nan nan nan nan nan nan nan nan nan nan nan nan 287 287 290 289 288 294 294 295 298 300 307 311 312 313 315 320 323 327 331 332 333 331 325 319 315 306 313 309 303 nan 280 274 265 263 266 273 265 260 261 267 270 270 nan nan nan nan nan nan nan nan nan nan nan nan nan nan nan nan nan nan nan nan nan nan nan nan nan nan nan nan
nan nan nan nan nan nan nan nan nan nan nan nan nan nan nan nan nan 286 289 286 286 286 287 289 294 297 301 304 301 303 307 320 327 331 332 331 332 325 322 318 319 302 297 304 301 276 277 278 273 264 263 261 258 263 273 272 262 272 nan 257 nan nan nan nan nan nan nan nan nan nan nan nan nan nan nan nan nan nan nan nan nan nan nan nan nan
nan nan nan nan nan nan nan nan nan nan nan nan nan nan nan nan nan nan 284 285 282 281 280 277 281 283 286 289 293 298 307 313 325 326 324 328 330 331 325 318 313 304 307 309 306 292 284 282 271 266 259 254 252 263 266 264 257 255 nan 254 nan nan nan nan nan nan nan nan nan nan nan nan nan nan nan nan nan nan nan nan nan nan nan nan nan
nan nan nan nan nan nan nan nan nan nan nan nan nan nan nan nan nan nan nan 279 275 271 271 274 272 278 279 280 281 286 296 308 312 314 317 322 326 330 329 326 326 323 317 312 308 310 309 289 282 279 271 259 246 256 261 266 260 256 256 252 nan nan nan nan nan nan nan nan nan nan nan nan nan nan nan nan nan nan nan nan nan nan nan nan nan
nan nan nan nan nan nan nan nan nan nan nan nan nan nan nan nan nan nan nan nan nan nan nan nan nan nan nan nan nan nan nan 303 306 310 313 315 320 323 324 323 321 317 318 321 319 308 304 301 291 282 274 265 255 247 254 257 260 260 257 254 nan nan nan nan nan nan nan nan nan nan nan nan nan nan nan nan nan nan nan nan nan nan nan nan nan
nan nan nan nan nan nan nan nan nan nan nan nan nan nan nan nan nan nan nan nan nan nan nan nan nan nan nan nan nan nan nan nan nan nan 306 311 318 320 317 316 314 313 nan 324 323 309 301 nan 292 280 268 265 258 250 246 256 263 257 254 255 254 254 nan 253 nan nan nan nan nan nan nan nan nan nan nan nan nan nan nan nan nan nan nan nan nan
nan nan nan nan nan nan nan nan nan nan nan nan nan nan nan nan nan nan nan nan nan nan nan nan nan nan nan nan nan nan nan nan nan nan nan nan 313 317 314 316 313 308 308 317 321 312 303 296 291 285 273 264 266 251 235 242 257 256 254 256 255 nan 250 249 nan 252 nan nan nan nan nan nan nan nan nan nan nan nan nan nan nan nan nan nan nan
nan nan nan nan nan nan nan nan nan nan nan nan nan nan nan nan nan nan nan nan nan nan nan nan nan nan nan nan nan nan nan nan nan nan nan nan nan nan nan nan 316 310 301 296 296 312 315 303 nan nan 282 268 nan 258 236 233 239 nan nan nan 246 242 nan 247 250 250 nan nan nan nan nan nan nan nan nan nan nan nan nan nan nan nan nan nan nan
nan nan nan nan nan nan nan nan nan nan nan nan nan nan nan nan nan nan nan nan nan nan nan nan nan nan nan nan nan nan nan nan nan nan nan nan nan nan nan nan nan nan 305 296 292 290 292 295 293 295 nan 278 nan nan 246 236 233 233 nan nan nan nan nan nan 243 nan nan nan nan nan nan nan nan nan nan nan nan nan nan nan nan nan nan nan nan
nan nan nan nan nan nan nan nan nan nan nan nan nan nan nan nan nan nan nan nan nan nan nan nan nan nan nan nan nan nan nan nan nan nan nan nan nan nan nan nan nan nan nan nan nan 288 289 nan 283 275 287 nan nan nan nan nan nan 231 229 nan 250 249 242 242 nan nan nan nan nan nan nan nan nan nan nan nan nan nan nan nan nan nan nan nan nan
nan nan nan nan nan nan nan nan nan nan nan nan nan nan nan nan nan nan nan nan nan nan nan nan nan nan nan nan nan nan nan nan nan nan nan nan nan nan nan nan nan nan nan nan nan nan 280 nan nan 274 273 nan nan nan nan nan nan nan nan nan 245 243 245 252 249 nan nan 265 nan nan nan nan nan nan nan nan nan nan nan nan nan nan nan nan nan
nan nan nan nan nan nan nan nan nan nan nan nan nan nan nan nan nan nan nan nan nan nan nan nan nan nan nan nan nan nan nan nan nan nan nan nan nan nan nan nan nan nan nan nan nan nan nan nan nan nan nan nan nan nan nan nan nan nan nan nan nan 244 nan nan 244 250 258 261 258 nan 259 261 nan nan nan nan nan nan nan nan nan nan nan nan nan
nan nan nan nan nan nan nan nan nan nan nan nan nan nan nan nan nan nan nan nan nan nan nan nan nan nan nan nan nan nan nan nan nan nan nan nan nan nan nan nan nan nan nan nan nan nan nan nan nan nan nan nan nan nan nan nan nan nan nan nan nan nan nan nan nan nan nan 253 256 253 248 245 nan nan nan nan nan nan nan nan nan nan 269 266 nan
nan nan nan nan nan nan nan nan nan nan nan nan nan nan nan nan nan nan nan nan nan nan nan nan nan nan nan nan nan nan nan nan nan nan nan nan nan nan nan nan nan nan nan nan nan nan nan nan nan nan nan nan nan nan nan nan nan 247 nan nan nan nan nan nan nan nan nan nan 248 248 243 236 241 nan nan nan nan nan nan nan nan nan 264 262 nan
nan nan nan nan nan nan nan nan nan nan nan nan nan nan nan nan nan nan nan nan nan nan nan nan nan nan nan nan nan nan nan nan nan nan nan nan nan nan nan nan nan nan nan nan nan nan nan nan nan nan nan nan nan nan nan nan nan nan nan nan nan nan nan nan nan nan nan nan nan nan nan nan nan nan nan nan nan nan nan nan nan nan nan nan nan
nan nan nan nan nan nan nan nan nan nan nan nan nan nan nan nan nan nan nan nan nan nan nan nan nan nan nan nan nan nan nan nan nan nan nan nan nan nan nan nan nan nan nan nan nan nan nan nan nan nan nan nan nan nan nan nan nan nan nan nan nan nan nan nan nan nan nan nan nan nan nan nan nan nan nan nan nan nan nan nan nan nan nan nan nan
nan nan nan nan nan nan nan nan nan nan nan nan nan nan nan nan nan nan nan nan nan nan nan nan nan nan nan nan nan nan nan nan nan nan nan nan nan nan nan nan nan nan nan nan nan nan nan nan nan nan nan nan nan nan nan nan nan nan nan nan nan nan nan nan nan nan nan nan nan nan nan nan nan nan nan nan nan nan nan nan nan nan nan nan nan
nan nan nan nan nan nan nan nan nan nan nan nan nan nan nan nan nan nan nan nan nan nan nan nan nan nan nan nan nan nan nan nan nan nan nan nan nan nan nan nan nan nan nan nan nan nan nan nan nan nan nan nan nan nan nan nan nan nan nan nan nan nan nan nan nan nan nan nan nan nan nan nan nan nan nan nan nan nan nan nan nan nan nan nan nan
nan nan nan nan nan nan nan nan nan nan nan nan nan nan nan nan nan nan nan nan nan nan nan nan nan nan nan nan nan nan nan nan nan nan nan nan nan nan nan nan nan nan nan nan nan nan nan nan nan nan nan nan nan nan nan nan nan nan nan nan nan nan nan nan nan nan nan nan nan nan nan nan nan nan nan nan nan nan nan nan nan nan nan nan nan
nan nan nan nan nan nan nan nan nan nan nan nan nan nan nan nan nan nan nan nan nan nan nan nan nan nan nan nan nan nan nan nan nan nan nan nan nan nan nan nan nan nan nan nan nan nan nan nan nan nan nan nan nan nan nan nan nan nan nan nan nan nan nan nan nan nan nan nan nan nan nan nan nan nan nan nan nan nan nan nan nan nan nan nan nan
nan nan nan nan nan nan nan nan nan nan nan nan nan nan nan nan nan nan nan nan nan nan nan nan nan nan nan nan nan nan nan nan nan nan nan nan nan nan nan nan nan nan nan nan nan nan nan nan nan nan nan nan nan nan nan nan nan nan nan nan nan nan nan nan nan nan nan nan nan nan nan nan nan nan nan nan nan nan nan nan nan nan nan nan nan